Weather History for Orangeburg, SC

Change the Weather History Date:

Thursday, January 24, 2013

  Actual Average Record
Temperature  
Mean Temperature 49 °F 46 °F  
Max Temperature 65 °F 57 °F 77 °F (2002)
Min Temperature 33 °F 36 °F 15 °F (1963)
Degree Days  
Heating Degree Days 16 19  
Month to date heating degree days 263 468  
Since 1 July heating degree days 1077 1372  
Cooling Degree Days 0 0  
Month to date cooling degree days 19 0  
Year to date cooling degree days 19 0  
Moisture  
Dew Point 29 °F    
Average Humidity 49    
Maximum Humidity 77    
Minimum Humidity 26    
Precipitation  
Precipitation 0.00 in 0.15 in 1.62 in (2000)
Month to date precipitation 0.38 2.95  
Year to date precipitation 0.38 2.95  
Sea Level Pressure  
Sea Level Pressure 30.22 in    
Wind  
Wind Speed 11 mph (WNW)    
Max Wind Speed 21 mph    
Max Gust Speed 26 mph    
Visibility 10 miles    
Events      
T = Trace of Precipitation, MM = Missing Value Source: NWS Daily Summary

Daily Weather History Graph

Daily Weather History Graph

Search for Another Location

Airport:

Trip Planner

Search our weather history database for the weather conditions in past years. The results will help you decide how hot, cold, wet, or windy it might be!

Date:

Astronomy

Jan. 24, 2013 Rise Set
Actual Time 7:24 AM EST 5:47 PM EST
Civil Twilight 6:57 AM EST 6:13 PM EST
Nautical Twilight 6:27 AM EST 6:44 PM EST
Astronomical Twilight 5:58 AM EST 7:13 PM EST
Moon 3:49 PM EST (1/24) 5:18 AM EST (1/24)
Length of Visible Light 11h 16m
Length of Day
10h 23m
Waxing Gibbous, 94% of the Moon is Illuminated
Jan 24
Waxing Gibbous
Jan 26
Full
Feb 3
Last Quarter
Feb 10
New
Feb 17
First Quarter

Hourly Weather History & Observations

Time (EST) Temp. Windchill Dew Point Humidity Pressure Visibility Wind Dir Wind Speed Gust Speed Precip Events Conditions
12:53 AM 41.0 °F 36.4 °F 30.9 °F 67% 30.15 in 10.0 mi SW 6.9 mph - N/A   Clear
1:53 AM 41.0 °F 37.1 °F 32.0 °F 70% 30.14 in 9.0 mi SW 5.8 mph - N/A   Clear
2:53 AM 41.0 °F 37.1 °F 34.0 °F 76% 30.12 in 8.0 mi SW 5.8 mph - N/A   Partly Cloudy
3:53 AM 45.0 °F 40.6 °F 37.0 °F 74% 30.10 in 8.0 mi WSW 8.1 mph - N/A   Clear
4:53 AM 46.0 °F 41.0 °F 37.9 °F 73% 30.09 in 9.0 mi WSW 10.4 mph - N/A   Mostly Cloudy
5:53 AM 48.9 °F - 39.0 °F 69% 30.09 in 9.0 mi WSW 12.7 mph - N/A   Clear
6:53 AM 48.9 °F - 39.9 °F 71% 30.10 in 9.0 mi WSW 11.5 mph - N/A   Clear
7:53 AM 48.9 °F - 41.0 °F 74% 30.12 in 8.0 mi West 11.5 mph - N/A   Clear
8:53 AM 52.0 °F - 42.1 °F 69% 30.14 in 9.0 mi West 16.1 mph - N/A   Clear
9:53 AM 55.9 °F - 41.0 °F 57% 30.16 in 10.0 mi West 15.0 mph 21.9 mph N/A   Clear
10:53 AM 60.1 °F - 39.9 °F 47% 30.17 in 10.0 mi West 17.3 mph - N/A   Clear
11:53 AM 63.0 °F - 36.0 °F 37% 30.15 in 10.0 mi WNW 11.5 mph 19.6 mph N/A   Clear
12:53 PM 64.0 °F - 32.0 °F 30% 30.15 in 10.0 mi WNW 12.7 mph 20.7 mph N/A   Clear
1:53 PM 64.9 °F - 28.0 °F 25% 30.15 in 10.0 mi WNW 13.8 mph 20.7 mph N/A   Clear
2:53 PM 64.0 °F - 28.0 °F 26% 30.18 in 10.0 mi NNW 10.4 mph 21.9 mph N/A   Clear
3:53 PM 61.0 °F - 34.0 °F 36% 30.19 in 10.0 mi NE 10.4 mph - N/A   Clear
4:53 PM 53.1 °F - 28.0 °F 38% 30.26 in 10.0 mi ENE 15.0 mph 21.9 mph N/A   Clear
5:53 PM 50.0 °F - 24.1 °F 36% 30.30 in 10.0 mi ENE 9.2 mph - N/A   Clear
6:53 PM 46.9 °F - 19.9 °F 34% 30.35 in 10.0 mi NE 10.4 mph 17.3 mph N/A   Clear
7:53 PM 42.1 °F 34.5 °F 14.0 °F 32% 30.39 in 10.0 mi ENE 15.0 mph 21.9 mph N/A   Clear
8:53 PM 39.0 °F 32.3 °F 10.0 °F 30% 30.43 in 10.0 mi ENE 10.4 mph 23.0 mph N/A   Clear
9:53 PM 37.0 °F 30.4 °F 10.9 °F 34% 30.45 in 10.0 mi ENE 9.2 mph 17.3 mph N/A   Clear
10:53 PM 35.1 °F 29.3 °F 10.0 °F 35% 30.48 in 10.0 mi ENE 6.9 mph - N/A   Clear
11:53 PM 33.1 °F 26.1 °F 8.1 °F 35% 30.46 in 10.0 mi ENE 8.1 mph - N/A   Clear